Weather Roundup
Issued by NWS

Home | Current Version | Previous Version | Text Only | Print | Product List | Glossary On
Versions: 1 2 3 4 5 6 7 8 9 10 11 12 13 14 15 16 17 18 19 20 21 22 23 24 25 26 27 28 29 30 31 32 33 34 35 36 37 38 39 40 41 42 43 44 45 46 47 48 49 50
397
NZUS93 KARX 240510
HRRWXR

CURRENT HOURLY OBSERVATIONS ACROSS
MUCH OF THE UPPER MISSISSIPPI VALLEY
NATIONAL WEATHER SERVICE LA CROSSE WI
1200 AM CDT TUE APR 24 2018


...SOUTHEAST MINNESOTA...


CITY           SKY/WX    TMP DP  RH WIND       PRES   REMARKS
ROCHESTER      FAIR      56  33  42 CALM      30.14R
ROCHESTER/MAYO FAIR      53  37  55 CALM      30.13S
WINONA         FAIR      46  41  81 CALM      30.11S
AUSTIN         FAIR      45  39  81 CALM      30.13R
ALBERT LEA     FAIR      46  39  76 CALM      30.14S
DODGE CENTER   FAIR      48  37  66 CALM      30.13S
PRESTON        FAIR      54  33  45 N3        30.13S
OWATONNA       FAIR      46  39  76 CALM      30.14S
FARIBAULT      NOT AVBL
$$

...ELSEWHERE IN MINNESOTA...


CITY           SKY/WX    TMP DP  RH WIND       PRES   REMARKS
MINNEAPOLIS    FAIR      55  40  56 NW5       30.13S
INTNL FALLS    FAIR      35  30  82 CALM      30.16R
DULUTH         FAIR      51  31  46 NW6       30.13R
RED WING       FAIR      45  32  61 W3        30.12S
REDWOOD FALLS  PTCLDY    51  43  74 SW3       30.14S
MANKATO        FAIR      53  41  63 N3        30.15R
WORTHINGTON    PTCLDY    48  40  73 CALM      30.16S
FAIRMONT       CLEAR     47  39  74 NW5       30.15S
$$

...SOUTHWEST WISCONSIN...


CITY           SKY/WX    TMP DP  RH WIND       PRES   REMARKS
LA CROSSE      FAIR      49  34  56 CALM      30.12R
PRAIRIE DU CHI FAIR      46  32  58 CALM      30.11S
BOSCOBEL       FAIR      41  32  70 CALM      30.12S
LONE ROCK      FAIR      41  35  79 CALM      30.12S
PLATTEVILLE    FAIR      51  34  52 NE8       30.11S
FORT MC COY    FAIR      37  29  73 CALM      30.14S
MAUSTON-NEW LI FAIR      40  34  78 CALM      30.12S
VIROQUA        FAIR      50  31  47 E7        30.12S
WIS DELLS      FAIR      39  31  72 CALM      30.12S
$$

...ELSEWHERE IN WISCONSIN...


CITY           SKY/WX    TMP DP  RH WIND       PRES   REMARKS
MILWAUKEE      MOCLDY    49  27  42 CALM      30.11S
MADISON        FAIR      47  33  58 N3        30.11F
GREEN BAY      FAIR      47  31  53 CALM      30.13S
EAU CLAIRE     FAIR      45  32  60 CALM      30.12S
BLACK RVR FLS  FAIR      32  26  78 CALM      30.13S
MEDFORD        FAIR      39  32  76 CALM      30.13S
WAUSAU         FAIR      41  30  65 CALM      30.12S
WIS RAPIDS     FAIR      40  25  55 CALM      30.13F
MARSHFIELD     FAIR      44  30  57 CALM      30.12S
RICE LAKE      FAIR      38  35  90 CALM      30.15S
$$

...NORTHEAST IOWA...


CITY           SKY/WX    TMP DP  RH WIND       PRES   REMARKS
WATERLOO       FAIR      44  32  62 CALM      30.10S
DUBUQUE        FAIR      49  31  49 NE9       30.10F
DECORAH        FAIR      52  28  40 CALM      30.11R
MASON CITY     CLEAR     44  39  82 NW3       30.14S
CHARLES CITY   FAIR      52  37  58 NE7       30.12S
OELWEIN        FAIR      50  32  50 NE6       30.11S
$$

...ELSEWHERE IN IOWA...


CITY           SKY/WX    TMP DP  RH WIND       PRES   REMARKS
DES MOINES     CLEAR     57  31  37 NE7       30.10R
IOWA CITY      FAIR      54  27  35 NE7       30.09S
FORT DODGE     CLEAR     52  44  74 N6        30.13S
MARSHALLTOWN   CLEAR     46  33  60 NE7       30.09S
CEDAR RAPIDS   FAIR      54  30  40 NE10      30.08S
$$

...NORTHERN ILLINOIS...


CITY           SKY/WX    TMP DP  RH WIND       PRES   REMARKS
CHICAGO-OHARE  CLOUDY    49  31  49 N5        30.09F
CHICAGO-MIDWAY CLOUDY    52  35  52 CALM      30.10S
MOLINE         FAIR      53  37  54 E6        30.06F
ROCKFORD       CLOUDY    52  27  38 N7        30.12R
PEORIA         CLOUDY    55  53  93 NE9       30.05S
$$

NOTE: "FAIR" INDICATES FEW OR NO CLOUDS BELOW 12,000 FEET WITH NO
SIGNIFICANT WEATHER AND/OR OBSTRUCTIONS TO VISIBILITY. WIND
SPEEDS ARE IN MILES-PER-HOUR.




USA.gov is the U.S. government's official web portal to all federal, state and local government web resources and services.